www.pogodaiklimat.ru

Архив погоды в Каунасе (Литва)

Время
(UTC), дата
21 23.11
00 24.11
03 24.11
06 24.11
09 24.11
12 24.11
15 24.11
18 24.11
21 24.11
00 25.11
03 25.11
06 25.11
09 25.11
12 25.11
15 25.11
18 25.11
21 25.11
00 26.11
03 26.11
06 26.11
09 26.11
12 26.11
15 26.11
18 26.11
21 26.11
00 27.11
03 27.11
06 27.11
09 27.11
12 27.11
15 27.11
18 27.11
21 27.11
00 28.11
03 28.11
06 28.11
09 28.11
12 28.11
15 28.11
18 28.11
21 28.11
00 29.11
03 29.11
06 29.11
09 29.11
12 29.11
15 29.11
18 29.11
21 29.11
00 30.11
03 30.11
06 30.11
09 30.11
12 30.11
15 30.11
18 30.11
Ветер
(напр.,м/с)
Видим. Явления Облачность Т
(С)
Тd
(С)
f
(%)
Тe
(С)
Тes
(С)
Комфортность P
(гПа)
Po
(гПа)
Тmin
(С)
Tmax
(С)
R
(мм)
R24
(мм)
S
(см)
З 3-4
{5}
20 км 10/8 1020 м
[Sc Cs]
+0.2 -0.5 95 -5 -5 по сезону 1019.5 1009.7
ЮЗ 3-5
{6}
20 км 10/8 1050 м
[Sc Cs]
+1.5 +0.5 93 -3 -3 по сезону 1018.9 1009.2
ЮЗ 4-6
{6}
20 км 8/0
[Ac trans]
+1.0 -0.2 92 -4 -4 по сезону 1017.7 1007.9
ЮЗ 5-7
{9}
8000 м в посл. час дождь 10/10 180 м
[St]
+2.1 +1.3 94 -4 -4 по сезону 1016.7 1007.0 0.0 0.2 0
ЮЗ 5-7
{9}
9000 м дымка {дождь} 10/10 210 м
[Sc]
+3.2 +2.3 94 -2 -2 по сезону 1016.8 1007.1
З 4-8
{8}
20 км {дождь} 10/10 700 м
[Sc]
+5.7 +4.1 89 +2 +2 тепло 1015.9 1006.3
ЮЗ 4-6
{8}
20 км 10/10 540 м
[Sc]
+5.7 +4.2 90 +2 +2 тепло 1015.8 1006.2
ЮЗ 4-6
{7}
19 км 10/10 660 м
[Sc]
+5.8 +4.5 91 +2 +2 тепло 1015.8 1006.2 +6.1 0.0
ЮЗ 4-6
{8}
8000 м в посл. час дождь 10/10 210 м
[Sc]
+5.8 +5.1 95 +2 +2 тепло 1015.5 1005.9
ЮЗ 4-7
{8}
10 км слаб. дождь 10/10 270 м
[Ns]
+5.8 +4.9 94 +2 +2 тепло 1014.7 1005.1
ЮЗ 5-7
{8}
7000 м дымка {дождь} 10/10 400 м
[Sc]
+5.4 +4.4 93 +1 +1 тепло 1013.8 1004.2
ЮЗ 5-7
{9}
16 км {дождь} 10/10 840 м
[Sc]
+4.8 +3.6 92 -0 -0 по сезону 1012.5 1002.9 +4.8 0.4
ЮЗ 5-7
{9}
9000 м дымка 10/10 540 м
[Sc]
+5.2 +3.7 90 +1 +1 тепло 1011.4 1001.9
Ю 5-7
{9}
8000 м дымка 10/10 420 м
[Sc]
+4.7 +2.7 87 -0 -0 по сезону 1008.7 999.2
ЮЗ 4-6
{10}
18 км 10/10 840 м
[Sc]
+3.9 +0.5 78 -0 -0 по сезону 1006.4 996.9
Ю 6-8
{9}
10 км 10/10 480 м
[Sc]
+3.4 +0.7 82 -2 -2 по сезону 1003.8 994.3 +5.3
ЮЗ 5-8
{10}
8000 м дымка 10/10 900 м
[Sc]
+2.9 +0.2 82 -2 -2 по сезону 1000.9 991.4
ЮЗ 5-8
{11}
13 км 10/10 1380 м
[Sc]
+2.7 -1.9 72 -2 -2 по сезону 1000.1 990.6
ЮЗ 7-10
{10}
8000 м дымка 10/5 660 м
[Sc Ac As]
+2.0 -1.3 79 -4 -4 по сезону 999.1 989.6
ЮЗ 6-9
{11}
6000 м дымка 10/10 540 м
[Sc]
+2.1 -0.6 82 -4 -4 по сезону 999.7 990.2 +1.8
ЮЗ 7-10
{10}
7000 м дымка 4/3 1000 м
[Sc Ac trans Ci fib]
+2.4 -0.3 82 -4 -4 по сезону 1000.1 990.6
ЮЗ 6-8
{11}
9000 м дымка 10/8 1200 м
[Sc Ac As]
+3.6 +0.3 79 -2 -2 по сезону 1000.0 990.5
Ю 3-4
{9}
6000 м дымка 10/4 1000 м
[Sc Ac As Cs]
+1.0 -1.1 86 -3 -3 по сезону 1000.5 990.9
Ю 4-5
{5}
4900 м дымка 10/0
[Ac As]
+0.9 -0.7 89 -4 -4 по сезону 1000.2 990.6 +3.7
ЮВ 2-2
{5}
3100 м дымка 10/0
[Ac As]
+0.9 -0.1 93 -3 -3 по сезону 999.3 989.7
В 3-5
{5}
4400 м слаб. дождь 10/10 630 м
[Ns]
+1.6 +0.2 90 -3 -3 по сезону 997.1 987.6
СВ 3-6
{7}
2700 м слаб. снег {дождь} 10/10 120 м
[Ns]
+0.7 +0.1 96 -4 -4 по сезону 994.2 984.7
СВ 3-6
{9}
2200 м слаб. снег {дождь} 10/10 210 м
[Ns]
+0.6 0.0 96 -4 -4 по сезону 992.4 982.9 +0.6 3 <0.5
С 4-6
{8}
2900 м слаб. снег 10/10 150 м
[Ns]
+0.4 -0.1 96 -5 -5 по сезону 991.3 981.8
С 4-5
{7}
2300 м слаб. снег 10/10 90 м
[Ns]
+0.3 -0.1 97 -5 -5 по сезону 991.4 981.9
СЗ 2-2
{6}
4500 м слаб. снег 10/10 120 м
[Ns]
+0.3 -0.1 97 -4 -4 по сезону 992.7 983.2
З 2-3
{4}
3100 м слаб. снег {дождь} 10/10 90 м
[Ns]
+0.3 -0.2 96 -3 -3 по сезону 994.5 984.9 +0.7 6
ЮЗ 2-3
{3}
300 м туман {снег} ?/? +0.3 0.0 98 -4 -4 по сезону 996.2 986.6
З 4-6
{7}
7000 м в посл. час туман {снег} 10/10 120 м
[St]
+0.4 +0.1 98 -5 -5 по сезону 996.9 987.3
ЮЗ 3-4
{6}
6000 м дымка 10/10 450 м
[Sc]
+0.7 +0.1 96 -4 -4 по сезону 998.0 988.4
ЮЗ 3-4
{5}
8000 м дымка 10/10 1050 м
[Sc]
+0.9 +0.2 95 -4 -4 по сезону 999.2 989.6 +0.2 0.1 1
Ю 4-5
{7}
10 км {снег, дождь} 9/9 1050 м
[Sc]
+1.1 -0.1 92 -4 -4 по сезону 1000.6 991.0
Ю 5-7
{8}
19 км {снег, дождь} 10/10 420 м
[Sc]
+1.6 -0.9 83 -4 -4 по сезону 1000.8 991.2
Ю 4-5
{7}
18 км 10/10 450 м
[Sc]
+1.1 -1.7 82 -4 -4 по сезону 1000.8 991.2
СВ 1-2
{5}
7000 м дымка 10/10 500 м
[Sc]
+0.8 -1.5 85 -1 -1 по сезону 1000.7 991.1 +1.8 0.1
СВ 2-4
{5}
7000 м дымка 10/10 630 м
[Sc]
+0.8 -0.9 88 -3 -3 по сезону 999.7 990.1
СВ 4-7
{7}
6000 м слаб. дождь со снегом 10/10 210 м
[Ns]
+1.1 -0.2 91 -4 -4 по сезону 997.4 987.8
СВ 4-7
{8}
1800 м слаб. снег {дождь} 10/10 210 м
[Ns]
+0.5 -0.3 94 -5 -5 по сезону 995.4 985.8
СВ 2-5
{8}
1300 м слаб. снег {дождь} ясно +0.1 -0.4 96 -4 -4 по сезону 993.2 983.6 +0.1 4 3
С 4-7
{7}
2800 м слаб. снег 10/10 90 м
[Ns]
+0.3 0.0 98 -5 -5 по сезону 991.6 982.1
С 5-7
{7}
2000 м слаб. снег 10/10 240 м
[Ns]
+0.2 -0.2 97 -6 -6 прохладно 989.2 979.7
С 6-9
{10}
1400 м слаб. снег 10/10 180 м
[Ns]
-0.3 -0.9 96 -7 -7 прохладно 988.6 979.1
С 5-9
{11}
3200 м слаб. снег 10/10 210 м
[Ns]
-1.6 -2.2 96 -8 -8 прохладно 989.0 979.4 +0.3 6
СЗ 5-8
{12}
4200 м слаб. снег {метель} 10/10 330 м
[Ns]
-1.5 -2.5 93 -8 -8 прохладно 988.9 979.3
СЗ 7-11
{13}
16 км слаб. снег {метель} 10/10 400 м
[Ns]
-1.0 -2.7 88 -8 -8 прохладно 989.6 980.0
СЗ 7-13
{16}
19 км позёмок {снег, метель} 10/10 480 м
[Sc]
-0.9 -3.5 83 -8 -8 прохладно 991.3 981.7
З 4-7
{13}
20 км {снег, метель} 10/8 360 м
[Sc Cs]
-1.0 -2.6 89 -7 -7 по сезону 992.5 982.9 -2.1 0.3 8
З 4-7
{9}
20 км 3/1 1500 м
[Sc Ac trans]
-0.6 -3.3 82 -6 -6 по сезону 992.3 982.7
З 5-8
{10}
20 км 5/5 400 м
[Sc]
-0.8 -3.1 84 -7 -7 прохладно 991.2 981.6
ЮЗ 2-3
{10}
20 км 3/1 300 м
[Sc Ac trans]
-2.6 -3.9 91 -7 -7 по сезону 990.5 980.9
СЗ 1-2
{3}
5000 м в посл. час туман [диам. изморози 2 мм] 8/0
[Ac trans]
-5.7 -6.5 94 -8 -8 прохладно 989.9 980.2 -0.1
Местоположение метеостанции Каунас (Литва): широта 54.88 долгота 23.83 высота над уровнем моря 77 м.
В архиве по умолчанию представлена погода в Каунасе за последнюю неделю. Архивные данные за месяц целиком и за предыдущие месяцы, начиная с января 2011 года, Вы можете получить, выбрав интересующий диапазон дат из раскрывающегося списка и нажав кнопку "Найти!".
*Определитесь, кто Вы:
Внимание! Время в таблицах - всемирное. Для получения местного времени необходимо прибавить поправку, которая равна 2 ч.
Смотрите также архив погоды в соседних городах и на ближайших метеорологических станциях:
Партнеры нашего сайта:      
Пояснения к столбцам:
  • Ветер - указаны скорость ветра в м/с - средняя за 10 мин, порывы в срок и между сроками (в фигурных скобках) и направление, откуда дует ветер: С - северный,
  • СВ - северо-восточный, В - восточный, ЮВ - юго-восточный, Ю - южный, ЮЗ - юго-западный, З - западный, СЗ - северо-западный.
  • Видимость - горизонтальная дальность видимости в метрах или километрах. При видимости от 1 до 10 км при отсутствии осадков обычно наблюдается дымка, при ухудшении видимости до 1 км и менее - туман. В сухую погоду видимость может ухудшаться дымом, пылью или мглою.
  • Явления - указаны атмосферные явления, наблюдавшиеся в срок или в последний час перед сроком; фигурными скобками обозначены явления, наблюдавшиеся между сроками (за 1-3 часа до срока); квадратными скобками обозначены град или гололедные отложения с указанием их диаметра в мм.
  • Облачность - указаны через наклонную черту общая и нижняя облачность в баллах и высота нижней границы облаков в метрах; квадратными скобками обозначены формы облаков: Ci - перистые, Cs - перисто-слоистые, Cc - перисто-кучевые, Ac - высококучевые, As - высокослоистые, Sc - слоисто-кучевые, Ns - слоисто-дождевые, Cu - кучевые, Cb - кучево-дождевые. Подробнее классификацию облаков см. в Атласе облаков (PDF).
  • T - Температура воздуха - температура, измеренная на высоте 2 м над землей.
  • Td - Температура точки росы - температура, при понижении до которой содержащийся в воздухе водяной пар достигнет насыщения.
  • f - Относительная влажность воздуха - влажноcть воздуха, измеренная на высоте 2 м над землей.
  • Te - Эффективная температура - температура, которую ощущает одетый по сезону человек в тени. Характеристика душности погоды. При расчете учитывается влияние влажности воздуха и скорости ветра на теплоощущения человека.
  • Tes - Эффективная температура на солнце - температура, которую ощущает человек, с поправкой на солнечный нагрев. Характеристика знойности погоды. Зависит от высоты солнца над горизонтом, облачности и скорости ветра. Ночью, в пасмурную погоду, а также при ветре 12 м/с и более поправка равна нулю.
  • P - Атмосферное давление - приведенное к уровню моря атмосферное давление.
  • Po - Атмосферное давление - измеренное на уровне метеостанции атмосферное давление.
  • Tmin - Минимальная температура - минимум температуры воздуха на высоте 2 м над землей.
  • Tmax - Максимальная температура - максимум температуры воздуха на высоте 2 м над землей.
  • R - Количество осадков - Количество выпавших осадков за период времени, мм. При наведении курсора мыши на число - период времени, за который выпало указанное количество осадков.
  • R24 - Количество осадков - Количество выпавших осадков за 24 часа, мм.
  • S - Снежный покров - Высота снежного покрова, см. При наведении курсора мыши на число - состояние снежного покрова и степень покрытия местности в баллах.